Location: R�serve Fauniques des Laurentides
(47.3100°N, 71.1900°W)
Time: 10:45:48
(UTC-04:00)

Amateur Radio Satellites - All Passes

Search period start: 29 July 2014 10:15
Search period end: 30 July 2014 10:15
Location: R�serve Fauniques des Laurentides, 47.3100°N, 71.1900°W

Satellite Date Start Highest point End Downlink Frequencies (MHz)
Time Altitude Azimuth
Oscar 11 29 Jul 10:24:32 10:28:49 55° 100° (E) 10:33:05 145.825 FM, Beacon 2401.500 USB
FUNcube-1 29 Jul 10:46:52 10:50:43 35° 97° (E) 10:54:36 145.950 - 145.970 MHz USB
HO-68 29 Jul 10:53:01 10:59:59 58° 294° (WNW) 11:06:56 435.675 MHz FM
Sapphire 29 Jul 11:15:58 11:19:38 19° 254° (WSW) 11:23:18 437.095 MHz 1200 baud AX-25 AFSK
UKube-1 29 Jul 11:16:14 11:19:56 27° 295° (WNW) 11:23:35 145.840 MHz, 145.915 MHz
KITSAT 1 29 Jul 11:21:14 11:26:58 20° 4° (N) 11:32:41 435.175 FM
Oscar 11 29 Jul 12:01:41 12:04:38 18° 298° (WNW) 12:07:34 145.825 FM, Beacon 2401.500 USB
Uribyol 2 29 Jul 12:03:39 12:05:11 11° 52° (NE) 12:06:44 436.500 FM
AO-27 29 Jul 12:03:46 12:05:09 11° 51° (NE) 12:06:32 436.795 MHz FM
JAS-1B 29 Jul 12:22:18 12:29:19 25° 47° (NE) 12:36:35 435.800 - 435.900 CW/SSB
FUNcube-1 29 Jul 12:23:38 12:27:00 24° 295° (WNW) 12:30:22 145.950 - 145.970 MHz USB
Oscar 19 29 Jul 12:29:50 12:34:19 32° 64° (ENE) 12:38:50 437.125 CW, 437.150 USB
HO-68 29 Jul 12:42:37 12:46:16 15° 316° (NW) 12:49:55 435.675 MHz FM
AO-Echo 29 Jul 12:43:48 12:47:54 23° 61° (ENE) 12:52:01 ?
SO-50 29 Jul 12:54:33 12:59:01 74° 125° (SE) 13:03:36 436.795 FM
Oscar 16 29 Jul 12:57:39 13:02:39 56° 70° (ENE) 13:07:41 437.025 USB, Beacon 2401.1428
RS-15 29 Jul 13:02:28 13:12:50 48° 112° (ESE) 13:23:02 29.354 - 29.394 USB, Beacon 29.352 USB
Saudisat 1A 29 Jul 13:15:05 13:15:50 10° 16° (NNE) 13:16:35 436.775 MHz
UOSAT-12 29 Jul 13:16:29 13:18:07 12° 107° (ESE) 13:19:46 437.025 FM, 437.400 FM
KITSAT 1 29 Jul 13:17:54 13:25:10 34° 33° (NNE) 13:32:23 435.175 FM
ITAMSAT 1 29 Jul 13:19:30 13:24:23 42° 67° (ENE) 13:29:17 435.822 SSB
AO-27 29 Jul 13:38:31 13:43:40 62° 71° (ENE) 13:48:49 436.795 MHz FM
Uribyol 2 29 Jul 13:38:33 13:43:41 64° 71° (ENE) 13:48:50 436.500 FM
TMSAT-1 29 Jul 13:40:03 13:44:06 23° 60° (ENE) 13:48:09 436.925 FM
AO-7 29 Jul 13:55:07 14:01:05 22° 45° (NE) 14:07:02 29.400 - 29.500 MHz
Gurwin Techsat 1B 29 Jul 14:03:28 14:08:29 44° 68° (ENE) 14:13:32 435.225 FM
Oscar 19 29 Jul 14:08:50 14:13:35 38° 263° (W) 14:18:23 437.125 CW, 437.150 USB
JAS-1B 29 Jul 14:09:06 14:18:09 74° 69° (ENE) 14:28:04 435.800 - 435.900 CW/SSB
AO-Echo 29 Jul 14:21:01 14:26:16 60° 259° (W) 14:31:33 ?
SO-50 29 Jul 14:36:29 14:40:05 23° 326° (NW) 14:43:46 436.795 FM
Oscar 16 29 Jul 14:38:31 14:42:22 21° 268° (W) 14:46:15 437.025 USB, Beacon 2401.1428
Uosat F 29 Jul 14:41:49 14:45:23 20° 59° (ENE) 14:48:57 435.120 FM
UOSAT-12 29 Jul 14:52:51 14:57:29 82° 126° (SE) 15:02:13 437.025 FM, 437.400 FM
Saudisat 1A 29 Jul 14:52:59 14:56:52 29° 39° (NE) 15:00:44 436.775 MHz
ITAMSAT 1 29 Jul 14:59:30 15:04:01 29° 265° (W) 15:08:33 435.822 SSB
KITSAT 1 29 Jul 15:13:21 15:21:29 83° 238° (WSW) 15:29:32 435.175 FM
RS-15 29 Jul 15:14:02 15:24:56 62° 317° (NW) 15:35:48 29.354 - 29.394 USB, Beacon 29.352 USB
TMSAT-1 29 Jul 15:18:22 15:23:36 61° 259° (W) 15:28:53 436.925 FM
AO-27 29 Jul 15:19:50 15:23:36 20° 269° (W) 15:27:24 436.795 MHz FM
Uribyol 2 29 Jul 15:19:58 15:23:37 19° 269° (W) 15:27:17 436.500 FM
OPAL 29 Jul 15:32:39 15:34:22 12° 89° (E) 15:36:05 ?
JAS-2 29 Jul 15:34:28 15:36:33 11° 46° (NE) 15:38:36 435.800 - 435.900 CW/SSB, 435.910 FM
Gurwin Techsat 1B 29 Jul 15:44:05 15:48:38 29° 266° (W) 15:53:12 435.225 FM
AO-7 29 Jul 15:44:16 15:52:36 76° 67° (ENE) 16:00:58 29.400 - 29.500 MHz
JAS-1B 29 Jul 16:01:25 16:09:23 34° 271° (W) 16:18:04 435.800 - 435.900 CW/SSB
Uosat F 29 Jul 16:18:40 16:23:41 67° 257° (WSW) 16:28:44 435.120 FM
Saudisat 1A 29 Jul 16:32:24 16:36:39 47° 239° (WSW) 16:40:52 436.775 MHz
UOSAT-12 29 Jul 16:34:32 16:38:13 22° 327° (NNW) 16:41:56 437.025 FM, 437.400 FM
Hamsat 29 Jul 16:45:55 16:48:56 20° 63° (ENE) 16:51:59 145.90 MHz
OPAL 29 Jul 17:08:54 17:14:00 82° 107° (ESE) 17:19:08 ?
KITSAT 1 29 Jul 17:10:17 17:15:42 20° 258° (WSW) 17:21:06 435.175 FM
JAS-2 29 Jul 17:12:49 17:20:03 46° 66° (ENE) 17:26:45 435.800 - 435.900 CW/SSB, 435.910 FM
RS-15 29 Jul 17:30:23 17:39:58 33° 349° (NNW) 17:49:36 29.354 - 29.394 USB, Beacon 29.352 USB
AO-7 29 Jul 17:39:17 17:46:09 28° 267° (W) 17:53:04 29.400 - 29.500 MHz
SO-50 29 Jul 18:03:37 18:05:09 11° 16° (NNE) 18:06:41 436.795 FM
UOSAT-12 29 Jul 18:19:40 18:20:09 10° 351° (N) 18:20:38 437.025 FM, 437.400 FM
Hamsat 29 Jul 18:20:36 18:24:37 46° 261° (W) 18:28:41 145.90 MHz
SO-67 29 Jul 18:22:54 18:25:54 28° 69° (ENE) 18:28:55 435.3500 MHz FM
OPAL 29 Jul 18:49:05 18:52:17 17° 305° (NW) 18:55:31 ?
JAS-2 29 Jul 18:57:40 19:05:02 45° 263° (W) 19:11:57 435.800 - 435.900 CW/SSB, 435.910 FM
STRAND 1 29 Jul 19:33:07 19:38:14 66° 102° (ESE) 19:43:17 ?
HO-68 29 Jul 19:37:42 19:44:02 36° 59° (ENE) 19:50:22 435.675 MHz FM
SO-50 29 Jul 19:43:02 19:47:13 30° 39° (NE) 19:51:26 436.795 FM
RS-15 29 Jul 19:46:07 19:56:08 38° 23° (NNE) 20:06:20 29.354 - 29.394 USB, Beacon 29.352 USB
SO-67 29 Jul 19:56:21 19:59:01 21° 267° (W) 20:01:42 435.3500 MHz FM
UOSAT-12 29 Jul 20:00:43 20:02:29 12° 16° (NNE) 20:04:15 437.025 FM, 437.400 FM
UKube-1 29 Jul 20:38:15 20:42:25 46° 69° (ENE) 20:46:37 145.840 MHz, 145.915 MHz
MaSat-1 29 Jul 20:53:10 20:57:01 37° 109° (ESE) 21:01:26 437.345 MHz
STRAND 1 29 Jul 21:13:16 21:16:57 20° 301° (WNW) 21:20:36 ?
Oscar 11 29 Jul 21:22:30 21:26:46 64° 73° (ENE) 21:31:03 145.825 FM, Beacon 2401.500 USB
SO-50 29 Jul 21:23:25 21:28:01 52° 238° (WSW) 21:32:41 436.795 FM
HO-68 29 Jul 21:24:27 21:31:28 56° 258° (WSW) 21:38:31 435.675 MHz FM
UOSAT-12 29 Jul 21:39:52 21:44:07 31° 39° (NE) 21:48:20 437.025 FM, 437.400 FM
FUNcube-1 29 Jul 21:46:21 21:50:25 43° 70° (ENE) 21:54:26 145.950 - 145.970 MHz USB
RS-15 29 Jul 21:59:09 22:10:13 84° 52° (NE) 22:21:40 29.354 - 29.394 USB, Beacon 29.352 USB
UKube-1 29 Jul 22:15:36 22:18:51 20° 267° (W) 22:22:08 145.840 MHz, 145.915 MHz
MaSat-1 29 Jul 22:30:26 22:34:25 32° 312° (NW) 22:38:53 437.345 MHz
Oscar 11 29 Jul 23:01:06 23:03:24 14° 271° (W) 23:05:42 145.825 FM, Beacon 2401.500 USB
PCSat 29 Jul 23:11:27 23:12:19 10° 101° (E) 23:13:10 145.825 MHz
UOSAT-12 29 Jul 23:19:54 23:24:29 48° 239° (WSW) 23:28:58 437.025 FM, 437.400 FM
FUNcube-1 29 Jul 23:23:52 23:27:02 20° 268° (W) 23:30:11 145.950 - 145.970 MHz USB
ISS 29 Jul 23:43:28 23:46:39 42° 146° (SE) 23:49:50 145.800 FM
RS-15 30 Jul 00:12:22 00:21:26 31° 255° (WSW) 00:30:48 29.354 - 29.394 USB, Beacon 29.352 USB
Sapphire 30 Jul 00:16:39 00:21:31 36° 112° (ESE) 00:26:25 437.095 MHz 1200 baud AX-25 AFSK
PCSat 30 Jul 00:49:20 00:54:42 68° 119° (ESE) 01:00:06 145.825 MHz
Oscar 16 30 Jul 01:07:24 01:10:26 16° 89° (E) 01:13:29 437.025 USB, Beacon 2401.1428
ISS 30 Jul 01:20:04 01:23:21 51° 345° (NNW) 01:26:39 145.800 FM
ITAMSAT 1 30 Jul 01:31:40 01:33:03 11° 86° (E) 01:34:27 435.822 SSB
Uribyol 2 30 Jul 01:49:11 01:52:37 18° 90° (E) 01:56:01 436.500 FM
AO-27 30 Jul 01:49:31 01:52:53 17° 89° (E) 01:56:12 436.795 MHz FM
JAS-1B 30 Jul 01:53:39 02:00:24 22° 82° (E) 02:06:28 435.800 - 435.900 CW/SSB
Sapphire 30 Jul 01:59:43 02:04:52 43° 312° (NW) 02:10:03 437.095 MHz 1200 baud AX-25 AFSK
Oscar 19 30 Jul 02:16:38 02:21:45 59° 101° (E) 02:26:52 437.125 CW, 437.150 USB
Gurwin Techsat 1B 30 Jul 02:18:01 02:20:36 14° 87° (E) 02:23:10 435.225 FM
AO-Echo 30 Jul 02:25:33 02:30:15 36° 96° (E) 02:34:45 ?
PCSat 30 Jul 02:34:02 02:38:36 27° 320° (NW) 02:43:12 145.825 MHz
AO-40 30 Jul 02:39:55 04:05:23 17° 221° (SW) 06:23:45 Beacon 2401.320
Oscar 16 30 Jul 02:45:13 02:50:24 77° 287° (WNW) 02:55:34 437.025 USB, Beacon 2401.1428
OPAL 30 Jul 02:49:18 02:53:37 31° 62° (ENE) 02:57:57 ?
ISS 30 Jul 02:57:17 03:00:29 38° 5° (N) 03:03:40 145.800 FM
ITAMSAT 1 30 Jul 03:08:12 03:13:25 79° 104° (ESE) 03:18:35 435.822 SSB
Uribyol 2 30 Jul 03:27:27 03:32:36 69° 288° (WNW) 03:37:43 436.500 FM
AO-27 30 Jul 03:27:45 03:32:56 71° 288° (WNW) 03:38:05 436.795 MHz FM
TMSAT-1 30 Jul 03:31:00 03:36:03 43° 98° (E) 03:41:03 436.925 FM
JAS-1B 30 Jul 03:42:49 03:52:27 85° 105° (ESE) 04:00:38 435.800 - 435.900 CW/SSB
AO-7 30 Jul 03:43:42 03:49:20 19° 88° (E) 03:54:54 29.400 - 29.500 MHz
Sapphire 30 Jul 03:47:02 03:49:46 14° 336° (NNW) 03:52:32 437.095 MHz 1200 baud AX-25 AFSK
Gurwin Techsat 1B 30 Jul 03:55:58 04:01:19 90° 288° (WNW) 04:06:38 435.225 FM
Oscar 19 30 Jul 03:56:47 04:00:42 22° 300° (WNW) 04:04:38 437.125 CW, 437.150 USB
AO-Echo 30 Jul 04:04:26 04:08:58 33° 295° (WNW) 04:13:21 ?
PCSat 30 Jul 04:22:56 04:24:01 11° 345° (NNW) 04:25:05 145.825 MHz
Uosat F 30 Jul 04:23:32 04:27:55 29° 95° (E) 04:32:16 435.120 FM
Oscar 16 30 Jul 04:26:32 04:28:55 13° 306° (NW) 04:31:19 437.025 USB, Beacon 2401.1428
OPAL 30 Jul 04:27:49 04:32:25 38° 260° (W) 04:37:03 ?
ISS 30 Jul 04:34:05 04:37:28 86° 24° (NNE) 04:40:50 145.800 FM
ITAMSAT 1 30 Jul 04:48:57 04:52:18 18° 303° (WNW) 04:55:37 435.822 SSB
MaSat-1 30 Jul 05:08:01 05:12:41 30° 47° (NE) 05:17:13 437.345 MHz
Uribyol 2 30 Jul 05:09:17 05:11:09 12° 307° (NW) 05:13:01 436.500 FM
AO-27 30 Jul 05:09:28 05:11:33 12° 307° (NW) 05:13:37 436.795 MHz FM
TMSAT-1 30 Jul 05:11:15 05:15:50 31° 296° (WNW) 05:20:23 436.925 FM
STRAND 1 30 Jul 05:14:56 05:18:41 21° 59° (ENE) 05:22:26 ?
JAS-1B 30 Jul 05:34:00 05:41:49 30° 309° (NW) 05:48:54 435.800 - 435.900 CW/SSB
AO-7 30 Jul 05:34:57 05:43:21 83° 109° (ESE) 05:51:40 29.400 - 29.500 MHz
Gurwin Techsat 1B 30 Jul 05:37:27 05:40:34 16° 304° (NW) 05:43:40 435.225 FM
KITSAT 1 30 Jul 05:44:53 05:52:27 46° 113° (ESE) 06:00:02 435.175 FM
Uosat F 30 Jul 06:02:09 06:06:49 40° 293° (WNW) 06:11:27 435.120 FM
Hamsat 30 Jul 06:03:19 06:06:54 25° 94° (E) 06:10:28 145.90 MHz
JAS-2 30 Jul 06:05:16 06:09:56 23° 89° (E) 06:14:15 435.800 - 435.900 CW/SSB, 435.910 FM
PCSat 30 Jul 06:09:51 06:10:11 10° 13° (NNE) 06:10:32 145.825 MHz
ISS 30 Jul 06:11:23 06:13:50 19° 222° (SW) 06:16:17 145.800 FM
Saudisat 1A 30 Jul 06:42:37 06:45:53 21° 113° (ESE) 06:49:09 436.775 MHz
MaSat-1 30 Jul 06:45:09 06:50:21 55° 247° (WSW) 06:55:16 437.345 MHz
STRAND 1 30 Jul 06:52:19 06:57:25 65° 258° (WSW) 07:02:33 ?
SO-67 30 Jul 07:16:42 07:19:28 22° 94° (E) 07:22:13 435.3500 MHz FM
Sapphire 30 Jul 07:18:18 07:21:45 17° 29° (NNE) 07:25:11 437.095 MHz 1200 baud AX-25 AFSK
AO-7 30 Jul 07:28:34 07:35:19 29° 310° (NW) 07:42:02 29.400 - 29.500 MHz
Hamsat 30 Jul 07:39:00 07:42:57 36° 291° (WNW) 07:46:54 145.90 MHz
KITSAT 1 30 Jul 07:39:53 07:47:47 54° 315° (NW) 07:55:43 435.175 FM
JAS-2 30 Jul 07:49:39 07:55:35 56° 291° (WNW) 08:00:54 435.800 - 435.900 CW/SSB, 435.910 FM
PCSat 30 Jul 07:51:16 07:55:42 25° 38° (NE) 08:00:06 145.825 MHz
Saudisat 1A 30 Jul 08:20:44 08:25:06 57° 312° (NW) 08:29:30 436.775 MHz
HO-68 30 Jul 08:49:07 08:54:49 25° 92° (E) 09:00:28 435.675 MHz FM
SO-67 30 Jul 08:49:34 08:52:33 26° 291° (WNW) 08:55:30 435.3500 MHz FM
Sapphire 30 Jul 09:00:58 09:06:21 59° 52° (NE) 09:11:42 437.095 MHz 1200 baud AX-25 AFSK
PCSat 30 Jul 09:34:17 09:39:44 78° 239° (WSW) 09:45:08 145.825 MHz
JAS-2 30 Jul 09:37:32 09:39:12 11° 314° (NW) 09:40:50 435.800 - 435.900 CW/SSB, 435.910 FM
KITSAT 1 30 Jul 09:38:56 09:45:13 24° 342° (NNW) 09:51:30 435.175 FM
UKube-1 30 Jul 09:59:21 10:03:39 54° 101° (E) 10:07:54 145.840 MHz, 145.915 MHz
Saudisat 1A 30 Jul 10:03:03 10:05:37 15° 334° (NNW) 10:08:13 436.775 MHz
